When you browse on this site, cookies collect data to enhance your experience and personalize the content and advertising you see.
Visit our Privacy Policy to learn more. By continuing to use the site, you agree to this use of cookies and data.
  • In Hungary
  • List of Countries
  • For 7 days
  • Water Temperature
  • Satellite Maps
  • Weather Map
  • News
  • Weather Widgets
  • user-avatar
    Login

    Hourly Weather Pinhao

    Today, 19 November, Monday

    Time Temperature Precipitation Wind Pressure Humidity
    00:00 +14°C° 0 mm 1 mps 672 mmHg 94%
    01:00 +14°C° 0 mm 1 mps 672 mmHg 95%
    02:00 +14°C° 0 mm 1 mps 672 mmHg 96%
    03:00 +14°C° 0 mm 1 mps 671 mmHg 97%
    04:00 +14°C° 0 mm 1 mps 672 mmHg 96%
    05:00 +15°C° 0 mm 1 mps 672 mmHg 96%
    06:00 +15°C° 0 mm 1 mps 672 mmHg 96%
    07:00 +18°C° 0 mm 1 mps 673 mmHg 87%
    08:00 +19°C° 0 mm 2 mps 674 mmHg 78%
    09:00 +21°C° 0 mm 2 mps 675 mmHg 69%
    10:00 +25°C° 0 mm 1 mps 675 mmHg 59%
    11:00 +27°C° 0 mm 1 mps 675 mmHg 49%
    12:00 +30°C° 0 mm 1 mps 676 mmHg 40%
    13:00 +30°C° 0 mm 1 mps 675 mmHg 38%
    14:00 +30°C° 0 mm 1 mps 675 mmHg 36%
    15:00 +30°C° 0 mm 1 mps 674 mmHg 34%
    16:00 +28°C° 0 mm 1 mps 673 mmHg 42%
    17:00 +27°C° 0 mm 1 mps 673 mmHg 51%
    18:00 +25°C° 0 mm 1 mps 672 mmHg 59%
    19:00 +23°C° 0 mm 1 mps 673 mmHg 66%
    20:00 +20°C° 0 mm 2 mps 673 mmHg 74%
    21:00 +18°C° 0 mm 2 mps 673 mmHg 82%
    22:00 +17°C° 0 mm 2 mps 673 mmHg 83%
    23:00 +16°C° 0 mm 2 mps 674 mmHg 84%

    Tomorrow, 20 November, Tuesday

    Time Temperature Precipitation Wind Pressure Humidity
    00:00 +14°C° 0 mm 3 mps 674 mmHg 85%
    01:00 +15°C° 0 mm 2 mps 674 mmHg 85%
    02:00 +14°C° 0 mm 2 mps 673 mmHg 86%
    03:00 +13°C° 0 mm 2 mps 673 mmHg 87%
    04:00 +13°C° 0 mm 2 mps 673 mmHg 88%
    05:00 +13°C° 0 mm 2 mps 673 mmHg 88%
    06:00 +12°C° 0 mm 2 mps 673 mmHg 89%
    07:00 +14°C° 0 mm 2 mps 674 mmHg 81%
    08:00 +17°C° 0 mm 2 mps 675 mmHg 72%
    09:00 +19°C° 0 mm 2 mps 676 mmHg 63%
    10:00 +23°C° 0 mm 1 mps 676 mmHg 56%
    11:00 +25°C° 0 mm 1 mps 677 mmHg 48%
    12:00 +28°C° 0 mm 1 mps 677 mmHg 41%
    13:00 +29°C° 0 mm 1 mps 676 mmHg 38%
    14:00 +29°C° 0 mm 1 mps 675 mmHg 36%
    15:00 +30°C° 0 mm 1 mps 675 mmHg 34%
    16:00 +28°C° 0 mm 1 mps 674 mmHg 40%
    17:00 +27°C° 0 mm 1 mps 674 mmHg 46%
    18:00 +25°C° 0 mm 1 mps 673 mmHg 52%
    19:00 +23°C° 0 mm 1 mps 674 mmHg 58%
    20:00 +20°C° 0 mm 2 mps 674 mmHg 63%
    21:00 +18°C° 0 mm 2 mps 674 mmHg 68%
    22:00 +17°C° 0 mm 2 mps 674 mmHg 73%
    23:00 +16°C° 0 mm 2 mps 675 mmHg 77%

    Day after tomorrow, 21 November, Wednesday

    Time Temperature Precipitation Wind Pressure Humidity
    00:00 +15°C° 0 mm 2 mps 675 mmHg 82%
    01:00 +14°C° 0 mm 2 mps 674 mmHg 84%
    02:00 +14°C° 0 mm 2 mps 674 mmHg 86%
    03:00 +13°C° 0 mm 2 mps 673 mmHg 88%
    04:00 +12°C° 0 mm 2 mps 673 mmHg 87%
    05:00 +12°C° 0 mm 2 mps 674 mmHg 87%
    06:00 +10°C° 0 mm 2 mps 674 mmHg 86%
    07:00 +14°C° 0 mm 2 mps 674 mmHg 76%
    08:00 +16°C° 0 mm 2 mps 675 mmHg 67%
    09:00 +18°C° 0 mm 2 mps 676 mmHg 58%
    10:00 +21°C° 0 mm 2 mps 676 mmHg 51%
    11:00 +24°C° 0 mm 2 mps 676 mmHg 45%
    12:00 +27°C° 0 mm 2 mps 676 mmHg 39%
    13:00 +28°C° 0 mm 2 mps 676 mmHg 37%
    14:00 +29°C° 0 mm 2 mps 675 mmHg 35%
    15:00 +29°C° 0 mm 1 mps 674 mmHg 33%
    16:00 +28°C° 0 mm 1 mps 674 mmHg 40%
    17:00 +27°C° 0 mm 1 mps 673 mmHg 47%
    18:00 +26°C° 0 mm 1 mps 673 mmHg 54%
    19:00 +24°C° 0 mm 1 mps 673 mmHg 62%
    20:00 +21°C° 0 mm 2 mps 673 mmHg 70%
    21:00 +19°C° 0 mm 2 mps 673 mmHg 78%
    22:00 +18°C° 0 mm 2 mps 673 mmHg 82%
    23:00 +17°C° 0 mm 2 mps 673 mmHg 87%

    22 November, Thursday

    Time Temperature Precipitation Wind Pressure Humidity
    00:00 +16°C° 0 mm 2 mps 673 mmHg 91%
    01:00 +16°C° 0 mm 2 mps 673 mmHg 91%
    02:00 +16°C° 0 mm 2 mps 673 mmHg 92%
    03:00 +16°C° 0 mm 2 mps 672 mmHg 92%
    04:00 +16°C° 0 mm 2 mps 673 mmHg 91%
    05:00 +16°C° 0 mm 1 mps 673 mmHg 90%
    06:00 +18°C° 0 mm 1 mps 673 mmHg 89%
    07:00 +19°C° 0 mm 1 mps 674 mmHg 86%
    08:00 +20°C° 0 mm 1 mps 674 mmHg 82%
    09:00 +20°C° 0 mm 2 mps 674 mmHg 78%
    10:00 +21°C° 0 mm 2 mps 674 mmHg 73%
    11:00 +24°C° 0 mm 1 mps 674 mmHg 68%
    12:00 +25°C° 0 mm 1 mps 674 mmHg 62%
    13:00 +26°C° 0 mm 1 mps 674 mmHg 58%
    14:00 +27°C° 0 mm 1 mps 673 mmHg 53%
    15:00 +26°C° 0 mm 0 mps 673 mmHg 49%
    16:00 +26°C° 0 mm 0 mps 673 mmHg 53%
    17:00 +27°C° 0 mm 1 mps 672 mmHg 57%
    18:00 +26°C° 0 mm 1 mps 672 mmHg 61%
    19:00 +24°C° 0 mm 1 mps 672 mmHg 69%
    20:00 +22°C° 0 mm 1 mps 672 mmHg 76%
    21:00 +20°C° 0 mm 1 mps 672 mmHg 83%
    22:00 +19°C° 0 mm 1 mps 672 mmHg 85%
    23:00 +19°C° 0 mm 1 mps 672 mmHg 88%

    23 November, Friday

    Time Temperature Precipitation Wind Pressure Humidity
    00:00 +19°C° 0 mm 1 mps 671 mmHg 91%
    01:00 +18°C° 0 mm 1 mps 671 mmHg 93%
    02:00 +18°C° 0 mm 1 mps 671 mmHg 95%
    03:00 +18°C° 0 mm 1 mps 671 mmHg 96%
    04:00 +18°C° 0.1 mm 1 mps 671 mmHg 97%
    05:00 +18°C° 0.1 mm 1 mps 672 mmHg 97%
    06:00 +18°C° 0.1 mm 1 mps 672 mmHg 97%
    07:00 +20°C° 0.4 mm 1 mps 673 mmHg 89%
    08:00 +22°C° 0.4 mm 1 mps 673 mmHg 82%
    09:00 +24°C° 0.4 mm 2 mps 674 mmHg 75%
    10:00 +25°C° 0.5 mm 1 mps 674 mmHg 70%
    11:00 +26°C° 0.5 mm 1 mps 674 mmHg 65%
    12:00 +28°C° 0.5 mm 1 mps 673 mmHg 60%
    13:00 +26°C° 1.5 mm 1 mps 673 mmHg 68%
    14:00 +25°C° 1.5 mm 1 mps 672 mmHg 77%
    15:00 +24°C° 1.5 mm 1 mps 671 mmHg 86%
    16:00 +23°C° 0.5 mm 1 mps 671 mmHg 88%
    17:00 +23°C° 0.5 mm 1 mps 671 mmHg 90%
    18:00 +22°C° 0.5 mm 1 mps 670 mmHg 92%
    19:00 +21°C° 0 mm 1 mps 671 mmHg 93%
    20:00 +20°C° 0 mm 1 mps 671 mmHg 94%
    21:00 +19°C° 0 mm 1 mps 671 mmHg 94%
    22:00 +19°C° 0 mm 1 mps 671 mmHg 94%
    23:00 +19°C° 0 mm 1 mps 671 mmHg 94%

    24 November, Saturday

    Time Temperature Precipitation Wind Pressure Humidity
    00:00 +19°C° 0 mm 1 mps 671 mmHg 94%
    01:00 +19°C° 0.1 mm 1 mps 670 mmHg 95%
    02:00 +16°C° 0.1 mm 0 mps 670 mmHg 95%
    03:00 +16°C° 0.1 mm 0 mps 670 mmHg 95%
    04:00 +16°C° 0.4 mm 0 mps 670 mmHg 96%
    05:00 +16°C° 0.4 mm 0 mps 671 mmHg 96%
    06:00 +16°C° 0.4 mm 0 mps 671 mmHg 97%
    07:00 +17°C° 0.3 mm 0 mps 671 mmHg 96%
    08:00 +17°C° 0.3 mm 0 mps 672 mmHg 95%
    09:00 +20°C° 0.3 mm 1 mps 672 mmHg 94%
    10:00 +21°C° 0.1 mm 1 mps 672 mmHg 86%
    11:00 +22°C° 0.1 mm 1 mps 672 mmHg 79%
    12:00 +23°C° 0.1 mm 2 mps 672 mmHg 71%
    13:00 +23°C° 0 mm 2 mps 671 mmHg 69%
    14:00 +24°C° 0 mm 2 mps 671 mmHg 67%
    15:00 +24°C° 0 mm 2 mps 670 mmHg 65%
    16:00 +23°C° 0 mm 1 mps 670 mmHg 71%
    17:00 +22°C° 0 mm 1 mps 670 mmHg 76%
    18:00 +21°C° 0 mm 1 mps 670 mmHg 81%
    19:00 +20°C° 0 mm 1 mps 670 mmHg 86%
    20:00 +19°C° 0 mm 1 mps 670 mmHg 90%
    21:00 +18°C° 0 mm 1 mps 670 mmHg 95%
    22:00 +18°C° 0 mm 1 mps 670 mmHg 96%
    23:00 +16°C° 0 mm 1 mps 670 mmHg 97%
    Show more